Montrose, CO

8:04 PM MST on January 16, 2018 (GMT -0700)
Montrose Regional

Weather History for KMTJ - May, 2012

Change the Weather History Date:

Thursday, May 3, 2012

  Actual Average Record
Temperature  
Mean Temperature 63 °F 54 °F  
Max Temperature 81 °F 69 °F 86 °F (2000)
Min Temperature 44 °F 40 °F 26 °F (2008)
Degree Days  
Heating Degree Days 2 11  
Month to date heating degree days 8 34  
Since 1 July heating degree days 5556 5972  
Cooling Degree Days 0 0  
Month to date cooling degree days 0 0  
Year to date cooling degree days 7 0  
Growing Degree Days 12 (Base 50)    
Moisture  
Dew Point 23 °F    
Average Humidity 30    
Maximum Humidity 49    
Minimum Humidity 10    
Precipitation  
Precipitation 0.00 in 0.05 in 0.74 in (2001)
Month to date precipitation 0.00 0.14  
Year to date precipitation 1.56 3.36  
Sea Level Pressure  
Sea Level Pressure 29.81 in    
Wind  
Wind Speed 10 mph (South)    
Max Wind Speed 26 mph    
Max Gust Speed 35 mph    
Visibility 10 miles    
Events      
T = Trace of Precipitation, MM = Missing Value Source: NWS Daily Summary

Daily Weather History Graph

Daily Weather History Graph

Search for Another Location

Airport or City:

Trip Planner

Search our weather history database for the weather conditions in past years. The results will help you decide how hot, cold, wet, or windy it might be!

Date:

Astronomy

May. 03, 2012 Rise Set
Actual Time 6:11 AM MDT 8:05 PM MDT
Civil Twilight 5:42 AM MDT 8:34 PM MDT
Nautical Twilight 5:07 AM MDT 9:09 PM MDT
Astronomical Twilight 4:30 AM MDT 9:47 PM MDT
Moon 5:35 PM MDT (5/3) 4:15 AM MDT (5/3)
Length of Visible Light 14h 51m
Length of Day
13h 54m
Waxing Gibbous, 91% of the Moon is Illuminated
May 3
Waxing Gibbous
May 5
Full
May 12
Last Quarter
May 20
New
May 28
First Quarter

Hourly Weather History & Observations

Time (MDT) Temp. Windchill Dew Point Humidity Pressure Visibility Wind Dir Wind Speed Gust Speed Precip Events Conditions
12:53 AM 52.0 °F - 26.1 °F 37% 29.79 in 10.0 mi SSE 9.2 mph - N/A   Clear
1:53 AM 46.9 °F - 26.1 °F 44% 29.80 in 10.0 mi SE 6.9 mph - N/A   Clear
2:53 AM 46.9 °F - 26.1 °F 44% 29.80 in 10.0 mi SE 9.2 mph - N/A   Clear
3:53 AM 48.0 °F - 27.0 °F 44% 29.80 in 10.0 mi SE 12.7 mph - N/A   Clear
4:53 AM 44.1 °F 41.5 °F 25.0 °F 47% 29.83 in 10.0 mi SE 4.6 mph - N/A   Clear
5:53 AM 45.0 °F 40.6 °F 26.1 °F 48% 29.84 in 10.0 mi SE 8.1 mph - N/A   Clear
6:53 AM 48.0 °F - 26.1 °F 42% 29.86 in 10.0 mi ESE 9.2 mph - N/A   Clear
7:53 AM 57.0 °F - 28.0 °F 33% 29.86 in 10.0 mi ESE 6.9 mph - N/A   Clear
8:53 AM 64.0 °F - 27.0 °F 25% 29.86 in 10.0 mi ENE 3.5 mph - N/A   Clear
9:53 AM 68.0 °F - 27.0 °F 21% 29.84 in 10.0 mi Calm Calm - N/A   Clear
10:53 AM 71.1 °F - 27.0 °F 19% 29.83 in 10.0 mi North 5.8 mph - N/A   Clear
11:53 AM 75.0 °F - 27.0 °F 17% 29.80 in 10.0 mi Variable 3.5 mph - N/A   Clear
12:53 PM 79.0 °F - 18.0 °F 10% 29.77 in 10.0 mi WSW 17.3 mph 21.9 mph N/A   Clear
1:53 PM 78.1 °F - 21.0 °F 12% 29.77 in 10.0 mi West 15.0 mph 29.9 mph N/A   Clear
2:42 PM 80.6 °F - 19.4 °F 10% 29.96 in 7.0 mi WSW 15.0 mph 31.1 mph N/A   Partly Cloudy
2:53 PM 79.0 °F - 21.0 °F 12% 29.75 in 10.0 mi WSW 12.7 mph 23.0 mph N/A   Partly Cloudy
3:03 PM 80.6 °F - 21.2 °F 11% 29.96 in 8.0 mi WSW 20.7 mph 33.4 mph N/A   Partly Cloudy
3:53 PM 79.0 °F - 21.0 °F 12% 29.74 in 9.0 mi WSW 20.7 mph 29.9 mph N/A   Clear
4:28 PM 78.8 °F - 21.2 °F 12% 29.94 in 7.0 mi WSW 25.3 mph 33.4 mph N/A   Partly Cloudy
4:53 PM 78.1 °F - 21.0 °F 12% 29.76 in 10.0 mi WSW 19.6 mph 25.3 mph N/A   Clear
5:53 PM 75.9 °F - 21.9 °F 13% 29.76 in 10.0 mi SW 13.8 mph 19.6 mph N/A   Clear
6:53 PM 73.9 °F - 19.9 °F 13% 29.77 in 10.0 mi WSW 13.8 mph 18.4 mph N/A   Clear
7:53 PM 72.0 °F - 17.1 °F 12% 29.76 in 10.0 mi SW 10.4 mph - N/A   Clear
8:53 PM 66.0 °F - 19.9 °F 17% 29.77 in 10.0 mi SSE 5.8 mph - N/A   Clear
9:53 PM 62.1 °F - 21.9 °F 21% 29.78 in 10.0 mi SSE 9.2 mph - N/A   Clear
10:53 PM 60.1 °F - 21.9 °F 23% 29.77 in 10.0 mi SE 11.5 mph - N/A   Clear
11:53 PM 57.0 °F - 23.0 °F 27% 29.78 in 10.0 mi SSE 6.9 mph - N/A   Clear